Flag for Germany Weather past 2 weeks in Bautzen, Saxony, Germany

Now
59 °F

Overcast.


Feels Like: 59 °F
Forecast: 49 / 60 °F
Wind: 6 mph from West

Location: Goerlitz

Current Time: Oct 20, 2014 at 10:53:31 AM

Latest Report: Oct 20, 2014 at 10:00 AM


Visibility: 28 mi

Pressure: 29.97 "Hg

Humidity: 86%

Dew point: 55 °F

Location of BautzenLocation

Historic Weather in Bautzen — Graph

°F

Bautzen temperature yesterday

Maximum temperature yesterday: 62 °F (at 3:00 PM)
Minimum temperature yesterday: 53 °F (at 6:00 AM)
Average temperature yesterday: 57 °F

Past Weeks' High & Low Weather Summary

 TemperatureHumidityPressure
High68 °F (Oct 9, 3:00 PM)98% (Oct 11, 3:00 AM)30.27 "Hg (Oct 11, 3:00 AM)
Low43 °F (Oct 6, 8:00 AM)54% (Oct 6, 5:00 PM)29.73 "Hg (Oct 16, 5:00 PM)
Average58 °F85%29.94 "Hg
* Reported Oct 5 10:00 AM — Oct 20 10:00 AM, Bautzen, Weather by CustomWeather, © 2014

Note: Actual official high and low records may vary slightly from our data, if they occured in-between our weather recording intervals... More about our weather records

Advertising

Bautzen weather history for previous 24 hours

 ConditionsComfort  
Time TempWeatherWind HumidityBarometerVisibility
10:00 AM
Oct 20
59 °FOvercast.6 mph86%29.97 "Hg28 mi
9:00 AM58 °FOvercast.5 mph88%29.97 "Hg25 mi
8:00 AM55 °FOvercast.2 mph94%29.96 "Hg19 mi
7:00 AM54 °FOvercast.2 mph95%29.96 "Hg19 mi
5:00 AM54 °FLight rain. Overcast.5 mph94%29.97 "Hg12 mi
4:00 AM58 °FLight rain. Overcast.6 mph84%29.97 "Hg7 mi
3:00 AM58 °FPassing clouds.6 mph89%29.94 "Hg11 mi
2:00 AM58 °FOvercast.7 mph87%29.96 "Hg11 mi
1:00 AM58 °FPassing clouds.7 mph87%29.97 "Hg9 mi
12:00 AM58 °FClear.8 mph87%29.97 "Hg9 mi
11:00 PM
Oct 19
59 °FClear.8 mph84%29.96 "Hg11 mi
10:00 PM58 °FClear.8 mph84%29.97 "Hg14 mi
9:00 PM59 °FClear.9 mph81%29.99 "Hg14 mi
8:00 PM58 °FClear.9 mph84%30.01 "Hg11 mi
7:00 PM59 °FPassing clouds.9 mph84%30.01 "Hg12 mi
6:00 PM58 °FPassing clouds.9 mph83%30.01 "Hg22 mi
5:00 PM60 °FPassing clouds.9 mph78%30.02 "Hg25 mi
4:00 PM61 °FPartly sunny.10 mph75%30.04 "Hg25 mi
3:00 PM62 °FScattered clouds.9 mph73%30.05 "Hg25 mi
2:00 PM61 °FPassing clouds.10 mph74%30.07 "Hg25 mi
1:00 PM61 °FPassing clouds.9 mph74%30.09 "Hg19 mi
12:00 PM60 °FPassing clouds.9 mph75%30.11 "Hg19 mi
11:00 AM59 °FPassing clouds.12 mph78%30.11 "Hg19 mi
10:00 AM58 °FPassing clouds.10 mph80%30.14 "Hg19 mi
Weather by CustomWeather, © 2014

See weather overviewHow to use our weather pages